Other Surface Observations
Issued by NWS

Home | Current Version | Previous Version | Text Only | Print | Product List | Glossary On
Versions: 1 2 3 4 5 6 7 8 9 10 11 12 13 14 15 16 17 18 19 20 21 22 23 24 25 26 27 28 29 30 31 32 33 34 35 36 37 38 39 40 41 42 43 44 45 46 47 48 49 50
065
SXUS52 KTAE 270818
OSOTAE
OSOTAE
North Florida/South Alabama/Southwest Georgia Weather Roundup
National Weather Service Tallahassee Florida
400 AM EDT SAT AUG 27 2016

Note: "fair" indicates few or no clouds below 12,000 feet with no
significant weather and/or obstructions to visibility.

!FLZ017-115-028-034-025-270900
...North Florida...

CITY           SKY/WX    TMP DP  RH WIND       PRES   REMARKS
TALLAHASSEE    CLEAR     77  71  82 E5        29.98F
APALACHICOLA   PTCLDY    83  76  79 E9G17     29.95F HX  91
PERRY          PTCLDY    74  70  86 NE3       30.00S
CROSS CITY     MOCLDY    75  70  83 NE6       29.98F
JACKSONVILLE   PTCLDY    67  67 100 CALM      29.99F
$$

!FLZ112-006-005-002-011-270900
...Florida Panhandle...

CITY           SKY/WX    TMP DP  RH WIND       PRES   REMARKS
MARIANNA       CLEAR     74  71  91 E6        29.98F
BONIFAY        NOT AVBL
PANAMA CITY NW FAIR      76  71  85 NE5       29.96S
TYNDALL AFB    CLEAR     78  72  82 E8        29.96F
TYND DRONE APT FAIR      78  73  85 E7        29.96F
DE FUNIAK SPR  FAIR      74  72  91 E5        29.98F
EGLIN AFB      CLEAR     77  73  88 NE6       29.97S
DESTIN         CLEAR     82  76  81 E6        29.96S
HURLBURT       CLEAR     75  74  95 N6        29.95S
CRESTVIEW      CLEAR     70  68  93 CALM      29.99S
PENSACOLA      CLEAR     79  75  87 N5        29.97R
$$

!ALZ063-066-270900
...South Alabama...

CITY           SKY/WX    TMP DP  RH WIND       PRES   REMARKS
DOTHAN         CLEAR     75  72  90 E7        30.03F
OZARK CAIRNS   CLEAR     73  70  91 NE5       29.99F
FT RUCKER HELI CLEAR     72  69  90 CALM      29.99F
RUCKER HELI 3  NOT AVBL
RUCKER HELI 2  FAIR      77  70  79 NE6       30.00S
FLORALA APT    CLEAR     73  69  87 CALM      30.01S
ANDALUSIA      CLEAR     76  70  82 CALM      29.99F
TROY           CLEAR     72  70  93 CALM      30.02F
EUFALA         FAIR      72  69  90 CALM      30.01F
MOBILE         CLEAR     74  71  91 CALM      30.00R
$$

!GAZ120>161-270900
...Southwest and South Central Georgia...

CITY           SKY/WX    TMP DP  RH WIND       PRES   REMARKS
THOMASVILLE    FAIR      72  72 100 NE3       30.03S
BAINBRIDGE     CLEAR     72  70  94 CALM      30.00F
MOODY AFB      CLEAR     71  68  88 E6        30.01F
VALDOSTA       CLEAR     72  71  97 CALM      30.01F
MOULTRIE       CLEAR     72  70  94 CALM      30.03S
BLAKELY        CLEAR     73  70  88 CALM      30.01F
ALBANY         CLEAR     73  69  87 E6        30.04F
TIFTON         FAIR      69  69 100 CALM      30.03F
FITZGERALD       N/A     70  70  99 CALM      30.06F
CORDELE        FAIR      73  70  89 CALM      30.06S
AMERICUS       FAIR      70  70 100 CALM      30.06F
HOMERVILLE     FAIR      68  68 100 CALM      30.03S
$$

!GMZ750-755-770-775-270900
...Coastal and Buoy Obs...

STATION/POSITION TIME  TEMP    WIND        PRES    VSBY  WAVE
                       AIR SEA DIR/SP/G                  HT/PER
                 (UTC) (F)     (DEG/KT/KT) (MB)    (MI)  (FT/S)
KEATON BEACH     0800   75      60/  7/  9 1014.7F
CEDAR KEY        0800   78      50/  8/ 10 1014.9F
C TOWER          0800   83     110/ 20/ 21 1014.7F
APALACHICOLA BUO 0750   85 86  100/ 16/ 16 1013.5F         3/ 4
PANAMA CITY BUOY 0750   83 86  120/ 16/ 19 1013.5F         3/ 5
MOBILE BUOY      0800   85 86  110/ 12/ 16 1013.9S
ORANGE BCH AL BU 0750   85 86   90/  8/ 10 1014.4R         2/ 6
$$




USA.gov is the U.S. government's official web portal to all federal, state and local government web resources and services.